This demonstration page uses our WeatherBlox Daily Observations layout. Learn more.

Hourly Observations for December 11, 2017

Temp ( °F °C ) Dew Point ( °F °C ) Humidity (%) Winds ( mph kmh ) Pressure ( in mb ) Visibility ( mi km ) Precip ( " mm )
12:54 am 00:54 Clear 28 -2.2 18 -7.8 66 66 Calm 30.06 1018 10 16.0934 0 0
1:54 am 01:54 Clear 38 3.3 17 -8.3 43 43 WSW 5 7 30.03 1017 10 16.0934 0 0
2:54 am 02:54 Clear 42 5.6 16 -8.9 35 35 W 13 20 30.03 1017 10 16.0934 0 0
3:54 am 03:54 Clear 40 4.4 16 -8.9 38 38 VRB 3 6 30 1016 10 16.0934 0 0
4:54 am 04:54 Clear 40 4.4 16 -8.9 38 38 WNW 6 9 30 1016 10 16.0934 0 0
5:54 am 05:54 Clear 43 6.1 16 -8.9 34 34 W 12 19 30 1016 10 16.0934 0 0
6:54 am 06:54 Clear 45 7.2 16 -8.9 31 31 WNW 16 26 29.99 1016 10 16.0934 0 0
7:54 am 07:54 Sunny 46 7.8 18 -7.8 32 32 WNW 18 30 30.01 1016 10 16.0934 0 0
8:54 am 08:54 Sunny 47 8.3 18 -7.8 31 31 NW 13 20 30.04 1017 10 16.0934 0 0
9:54 am 09:54 Sunny 50 10 25 -3.9 38 38 NW 26 43 30.04 1017 10 16.0934 0 0
10:54 am 10:54 Sunny 50 10 27 -2.8 41 41 NW 32 52 30.07 1018 10 16.0934 0 0
11:54 am 11:54 Mostly Cloudy 51 10.6 28 -2.2 41 41 NNW 28 44 30.07 1018 10 16.0934 0 0
12:54 pm 12:54 Cloudy 50 10 29 -1.7 44 44 NNW 30 48 30.08 1019 10 16.0934 0 0
1:54 pm 13:54 Cloudy 48 8.9 30 -1.1 50 50 NNW 32 52 30.1 1019 10 16.0934 0 0
2:54 pm 14:54 Cloudy 47 8.3 31 -0.6 54 54 NNW 28 44 30.12 1020 10 16.0934 0 0
3:54 pm 15:54 Cloudy with Light Rain 45 7.2 32 0 61 61 NNW 25 41 30.15 1021 10 16.0934 0 0.0254
4:54 pm 16:54 Cloudy 43 6.1 33 0.6 68 68 NNW 20 31 30.2 1023 10 16.0934 0 0.0254
5:08 pm 17:08 Cloudy 43 6.1 33 0.6 68 68 NNW 23 37 30.24 1024 10 16.0934 0 0
5:54 pm 17:54 Cloudy 42 5.6 32 0 68 68 NNW 24 39 30.24 1024 10 16.0934 0 0
6:54 pm 18:54 Mostly Cloudy 40 4.4 30 -1.1 68 68 NNW 12 19 30.27 1025 10 16.0934 0 0
7:54 pm 19:54 Mostly Clear 38 3.3 30 -1.1 73 73 N 20 31 30.31 1026 10 16.0934 0 0
8:54 pm 20:54 Clear 36 2.2 28 -2.2 73 73 N 20 31 30.33 1027 10 16.0934 0 0
9:54 pm 21:54 Clear 34 1.1 27 -2.8 76 76 NNW 16 26 30.35 1028 10 16.0934 0 0
10:54 pm 22:54 Clear 32 0 26 -3.3 79 79 N 15 24 30.38 1029 10 16.0934 0 0
11:54 pm 23:54 Clear 30 -1.1 23 -5 75 75 N 20 31 30.39 1029 10 16.0934 0 0

Powered by AerisWeather